STARLINK-5850, 57049

Orbit data source: Space-Track

STARLINK-5850, 57049 is a payload satellite owned by SpaceX/Seattle (US) in LEO that was launched on Thu, 22 Jun 2023 UTC via an FALCON 9 launch vehicle from the Air Force Western Test Range (AFWTR). Payload-class satellites include a variety of spacecraft equipped with specific instruments for various scientific and technological missions. These include communications satellites like Starlink; space stations such as the ISS; scientific satellites like the Hubble; Earth observation satellites from companies like Planet Labs, Umbra, and HawkEye 360; GPS; miniature CubeSats for education and research; and military/defense satellites.

Loading next visibility...
Identifier
57049, 2023-088B
Orbit
LEO
Country
Flag of USUS
Related business
Manufacturer
SpaceX/Seattle
Mission
Operational Commercial Communications
Bus & Motor
STARLINK, Unknown motor
Mass
305 kg wet, ~290 kg dry
Launch date (UTC)
Icon of a cake. It is the launch day of the satellite!2023-06-22 (3 years ago)
Launch vehicle
FALCON 9
Launch site
Air Force Western Test Range (AFWTR)
Object type
Payload
Rocket body
Debris
Shape & HBR
Box + 1 Pan, 10.1 m
Radar Cross Section
11.087 m², Large (>1 m²)

Expand to show TLE details & history
Last TLE update: 3 days ago

TLE from 3 days ago
0 STARLINK-5850
1 57049U 23088B   26170.72434015  .00001290  00000-0  56374-4 0  9999
2 57049  43.0003 254.7389 0000991 279.3511  80.7229 15.27579976166124
Epoch: 2026-06-19T17:23Z
TLE epoch observation values (Epoch: 2026-06-19T17:23:02.988Z)
Latitude
-0.00001°
Longitude
86.02723°
Altitude
482.715 km
Speed
7.626 km/s
True Right ascension
16h 58m 57s
True Declination
0° 00' 00"
Sunlit
Object was in full shadow at epoch
Visualization orbit readout
Latitude
Unknown
Longitude
Unknown
Altitude
Unknown
Speed
Unknown
Apparent Right ascension
Unknown
Apparent Declination
Unknown
Sunlit
N/A
Visualization observer readout
Local Sidereal Time
21:31:01
Azimuth
Unknown
Elevation
Unknown
Doppler factor
Unknown
Orbital elements
Apogee altitude
485.674 km
Perigee altitude
484.314 km
Semi-major axis
6,863.131 km
Eccentricity
0.0001
Inclination
43.0003°
RAAN
254.7389°
Arg. of periapsis
279.3511°
True anomaly
80.73411°
Mean anomaly
80.7229°
Eccentric anomaly
80.7285°
Mean motion
3.81733 °/min
Orbital period
94.31 mins
BSTAR
0.000056374
Loading maneuver chart data...
Computing Atmospheric mass density...
Loading historical data...
Loading historical data...
Loading historical data...
Loading historical data...
Loading historical data...
Loading historical data...
Loading historical data...

Documentation

Showing up to 5 results
|